Погода в Сергаче

Россия / Нижегородская область     55°31′12″N   45°28′52″E
темп.,
°C
ветер,
м/с
пор.,
м/с
влажн.,
%
обл.,
%
осадки,
мм/ч
давл.,
гПа
погр.,
м
4 декабря, сб
сб400:00+3ю81796100 0.0 1004691
03:00+4ю91992100 0.1 1002707
06:00+5ююз101987100 0.9 9981041
09:000з51297100 2.8 1002744
12:00+1зюз7127757 0.0 1004863
15:00−1зюз7127613 0.0 1006753
18:00−2зюз6118399 0.1 10081079
21:00−2зюз7118298 0.1 1009947
5 декабря, вс
вс500:00−3з6108083 0.0 1010822
03:00−3з697694 0.1 1012921
06:00−4з587986 0.0 1014832
09:00−4з477876 0.0 1016772
12:00−3зсз4570100 0.0 1017765
15:00−3зсз3469100 0.0 1018611
18:00−4сз1185100 0.1 1019272
21:00−4всв119191 0.2 1020186
6 декабря, пн
пн600:00−4в119394 0.1 1021118
03:00−5всв2294100 0.1 1022113
06:00−5в3390100 0.1 1023187
09:00−4вюв3389100 0.1 1025217
12:00−3юв3486100 0.1 1025330
15:00−3юв3589100 0.1 1026204
18:00−3юв3591100 0.0 1027192
21:00−3юв3688100 0.0 1027252
7 декабря, вт
вт700:00−3юв488595 0.0 1028309
03:00−3юв4987100 0.0 1028313
06:00−4юв51184100 0.0 1027404
09:00−3юв61480100 0.0 1027534
12:00−2юв81572100 0.0 1025648
15:00−3юв81585100 0.4 1023712
18:00−3юв91795100 3.2 1021640
21:00−2ююв81796100 6.3 1018620
8 декабря, ср
ср800:000ю71796100 2.9 1017587
03:00+2ю81896100 6.6 1016527
06:00+2ю81894100 0.1 1015564
09:00+3ююз81893100 0.1 1016583
12:00+3ююз71695100 0.0 1017531
15:00+2ююз61394100 0.0 1017385
18:00+2ю41195100 0.1 1018301
21:00+2ю51294100 0.1 1018308